| time (UTC) | temp F | wind direction | speed MPH | gust MPH | rain 1hr in | rain 24hr in | rain mn in | humidity % | barometer mb |
| 20260508153033 | 60 | 186 | 3.0 | 17.0 | 0.00 | 0.00 | 0.00 | 46 | 1015.7 |
| 20260508151531 | 60 | 190 | 6.0 | 9.0 | 0.00 | 0.00 | 0.00 | 48 | 1015.9 |
| 20260508150025 | 59 | 178 | 1.0 | 6.0 | 0.00 | 0.00 | 0.00 | 48 | 1015.8 |
| 20260508144523 | 59 | 144 | 3.0 | 11.0 | 0.00 | 0.00 | 0.00 | 50 | 1016.0 |
| 20260508143026 | 59 | 127 | 1.0 | 8.0 | 0.00 | 0.00 | 0.00 | 49 | 1016.0 |
| 20260508141522 | 58 | 5 | 1.0 | 9.0 | 0.00 | 0.00 | 0.00 | 46 | 1016.0 |
| 20260508140004 | 57 | 143 | 2.0 | 5.0 | 0.00 | 0.00 | 0.00 | 48 | 1016.2 |
| 20260508134506 | 57 | 182 | 4.0 | 7.0 | 0.00 | 0.00 | 0.00 | 50 | 1016.5 |
| 20260508133004 | 56 | 132 | 3.0 | 7.0 | 0.00 | 0.00 | 0.00 | 49 | 1016.4 |
| 20260508131507 | 55 | 166 | 0.0 | 4.0 | 0.00 | 0.00 | 0.00 | 57 | 1016.6 |
| 20260508130007 | 54 | 157 | 0.0 | 3.0 | 0.00 | 0.00 | 0.00 | 60 | 1016.6 |
| 20260508124507 | 53 | 163 | 2.0 | 5.0 | 0.00 | 0.00 | 0.00 | 63 | 1016.5 |
| 20260508123009 | 50 | 139 | 2.0 | 4.0 | 0.00 | 0.00 | 0.00 | 78 | 1016.5 |
| 20260508121508 | 47 | 247 | 0.0 | 0.0 | 0.00 | 0.00 | 0.00 | 94 | 1016.4 |
| 20260508120005 | 45 | 57 | 0.0 | 1.0 | 0.00 | 0.00 | 0.00 | 95 | 1015.9 |
| 20260508114507 | 44 | 246 | 0.0 | 1.0 | 0.00 | 0.00 | 0.00 | 95 | 1015.8 |
| 20260508113010 | 43 | 277 | 0.0 | 2.0 | 0.00 | 0.00 | 0.00 | 95 | 1015.8 |
| 20260508111504 | 42 | 148 | 0.0 | 1.0 | 0.00 | 0.00 | 0.00 | 95 | 1015.8 |
| 20260508110008 | 41 | 271 | 0.0 | 1.0 | 0.00 | 0.00 | 0.00 | 94 | 1015.6 |
| 20260508104502 | 41 | 360 | 0.0 | 2.0 | 0.00 | 0.00 | 0.00 | 93 | 1015.2 |
| 20260508103004 | 41 | 36 | 0.0 | 1.0 | 0.00 | 0.00 | 0.00 | 94 | 1014.9 |
| 20260508101503 | 41 | 95 | 0.0 | 0.0 | 0.00 | 0.00 | 0.00 | 92 | 1014.6 |
| 20260508100008 | 41 | 36 | 0.0 | 0.0 | 0.00 | 0.00 | 0.00 | 92 | 1014.2 |
| 20260508094507 | 42 | 94 | 0.0 | 1.0 | 0.00 | 0.00 | 0.00 | 93 | 1014.1 |
| 20260508093008 | 42 | 19 | 0.0 | 1.0 | 0.00 | 0.00 | 0.00 | 92 | 1014.1 |
| 20260508091509 | 43 | 19 | 0.0 | 1.0 | 0.00 | 0.00 | 0.00 | 93 | 1014.2 |
| 20260508090012 | 43 | 19 | 0.0 | 0.0 | 0.00 | 0.00 | 0.00 | 93 | 1014.1 |
| 20260508084514 | 43 | 19 | 0.0 | 0.0 | 0.00 | 0.00 | 0.00 | 93 | 1014.0 |
| 20260508083026 | 44 | 19 | 0.0 | 0.0 | 0.00 | 0.00 | 0.00 | 92 | 1013.9 |
| 20260508081512 | 44 | 19 | 0.0 | 0.0 | 0.00 | 0.00 | 0.00 | 92 | 1013.8 |
| 20260508080003 | 44 | 19 | 0.0 | 1.0 | 0.00 | 0.00 | 0.00 | 92 | 1013.6 |
| 20260508074506 | 45 | 19 | 0.0 | 0.0 | 0.00 | 0.00 | 0.00 | 92 | 1013.6 |
| 20260508073012 | 46 | 19 | 0.0 | 1.0 | 0.00 | 0.00 | 0.00 | 93 | 1013.6 |
| 20260508071525 | 46 | 19 | 0.0 | 2.0 | 0.00 | 0.01 | 0.00 | 93 | 1013.4 |
| 20260508070019 | 46 | 87 | 0.0 | 2.0 | 0.00 | 0.01 | 0.00 | 92 | 1013.3 |
| 20260508064503 | 47 | 87 | 0.0 | 1.0 | 0.00 | 0.01 | 0.00 | 93 | 1013.0 |
| 20260508063012 | 47 | 87 | 0.0 | 0.0 | 0.00 | 0.01 | 0.00 | 92 | 1012.8 |
| 20260508061509 | 48 | 87 | 0.0 | 0.0 | 0.00 | 0.01 | 0.00 | 92 | 1012.7 |
| 20260508060027 | 48 | 87 | 0.0 | 0.0 | 0.00 | 0.01 | 0.00 | 91 | 1012.5 |
| 20260508054523 | 48 | 87 | 0.0 | 0.0 | 0.00 | 0.01 | 0.00 | 91 | 1012.6 |
| 20260508053010 | 49 | 87 | 0.0 | 1.0 | 0.00 | 0.01 | 0.00 | 91 | 1012.5 |
| 20260508051512 | 50 | 87 | 0.0 | 4.0 | 0.00 | 0.02 | 0.00 | 91 | 1012.6 |
| 20260508050015 | 50 | 164 | 0.0 | 4.0 | 0.00 | 0.03 | 0.00 | 91 | 1012.5 |
| 20260508044504 | 50 | 182 | 1.0 | 4.0 | 0.00 | 0.03 | 0.00 | 90 | 1012.4 |
| 20260508043007 | 50 | 183 | 0.0 | 3.0 | 0.00 | 0.03 | 0.00 | 90 | 1012.2 |
| 20260508041508 | 51 | 126 | 0.0 | 2.0 | 0.00 | 0.04 | 0.00 | 90 | 1012.1 |
| 20260508040004 | 51 | 234 | 0.0 | 2.0 | 0.00 | 0.05 | 0.00 | 90 | 1012.0 |
| 20260508034504 | 51 | 215 | 0.0 | 1.0 | 0.00 | 0.06 | 0.05 | 88 | 1011.9 |
| 20260508033006 | 51 | 155 | 2.0 | 4.0 | 0.00 | 0.06 | 0.05 | 89 | 1011.8 |
| 20260508031508 | 51 | 182 | 2.0 | 4.0 | 0.00 | 0.06 | 0.05 | 88 | 1011.8 |
| 20260508030016 | 52 | 153 | 1.0 | 4.0 | 0.00 | 0.06 | 0.05 | 88 | 1011.7 |
| 20260508024508 | 52 | 148 | 1.0 | 4.0 | 0.00 | 0.06 | 0.05 | 88 | 1011.7 |
| 20260508023006 | 52 | 158 | 1.0 | 5.0 | 0.00 | 0.06 | 0.05 | 87 | 1011.7 |
| 20260508021505 | 52 | 171 | 0.0 | 4.0 | 0.00 | 0.06 | 0.05 | 86 | 1011.7 |
| 20260508020004 | 52 | 159 | 2.0 | 4.0 | 0.00 | 0.06 | 0.05 | 85 | 1011.6 |
| 20260508014516 | 53 | 196 | 2.0 | 5.0 | 0.00 | 0.06 | 0.05 | 85 | 1011.4 |
| 20260508013003 | 53 | 166 | 2.0 | 6.0 | 0.00 | 0.06 | 0.05 | 84 | 1011.3 |
| 20260508011504 | 53 | 150 | 2.0 | 5.0 | 0.00 | 0.06 | 0.05 | 84 | 1011.1 |
| 20260508010013 | 53 | 153 | 2.0 | 5.0 | 0.00 | 0.06 | 0.05 | 82 | 1011.1 |
| 20260508004507 | 54 | 138 | 1.0 | 5.0 | 0.00 | 0.06 | 0.05 | 80 | 1010.9 |
| 20260508003005 | 54 | 143 | 1.0 | 5.0 | 0.00 | 0.06 | 0.05 | 80 | 1010.8 |
| 20260508001504 | 55 | 9 | 0.0 | 3.0 | 0.00 | 0.06 | 0.05 | 78 | 1010.5 |
| 20260508000006 | 55 | 168 | 1.0 | 6.0 | 0.00 | 0.06 | 0.05 | 77 | 1010.2 |
| 20260507234515 | 55 | 131 | 2.0 | 5.0 | 0.00 | 0.06 | 0.05 | 77 | 1010.1 |
| 20260507233008 | 56 | 150 | 3.0 | 8.0 | 0.00 | 0.06 | 0.05 | 75 | 1010.0 |
| 20260507231508 | 56 | 172 | 3.0 | 7.0 | 0.00 | 0.06 | 0.05 | 73 | 1009.9 |
| 20260507230009 | 57 | 171 | 3.0 | 6.0 | 0.00 | 0.06 | 0.05 | 73 | 1009.7 |
| 20260507224510 | 57 | 121 | 2.0 | 7.0 | 0.00 | 0.06 | 0.05 | 75 | 1009.6 |
| 20260507223002 | 58 | 121 | 1.0 | 11.0 | 0.00 | 0.06 | 0.05 | 73 | 1009.6 |
| 20260507221503 | 57 | 132 | 3.0 | 11.0 | 0.00 | 0.06 | 0.05 | 70 | 1009.6 |
| 20260507220003 | 57 | 159 | 5.0 | 10.0 | 0.00 | 0.06 | 0.05 | 64 | 1009.5 |
| 20260507214507 | 58 | 135 | 0.0 | 5.0 | 0.00 | 0.06 | 0.05 | 63 | 1009.5 |
| 20260507213004 | 58 | 360 | 0.0 | 3.0 | 0.00 | 0.06 | 0.05 | 64 | 1009.4 |
| 20260507211504 | 57 | 100 | 3.0 | 7.0 | 0.00 | 0.06 | 0.05 | 67 | 1009.6 |
| 20260507210003 | 57 | 61 | 0.0 | 4.0 | 0.00 | 0.06 | 0.05 | 71 | 1009.5 |
| 20260507204503 | 57 | 111 | 2.0 | 6.0 | 0.00 | 0.06 | 0.05 | 67 | 1009.6 |
| 20260507203007 | 57 | 126 | 0.0 | 3.0 | 0.00 | 0.06 | 0.05 | 69 | 1009.6 |
| 20260507201503 | 56 | 246 | 0.0 | 3.0 | 0.00 | 0.06 | 0.05 | 69 | 1009.8 |
| 20260507200007 | 56 | 143 | 1.0 | 8.0 | 0.00 | 0.06 | 0.05 | 72 | 1009.8 |
| 20260507194504 | 56 | 157 | 0.0 | 3.0 | 0.00 | 0.06 | 0.05 | 70 | 1009.8 |
| 20260507193010 | 55 | 140 | 1.0 | 8.0 | 0.00 | 0.06 | 0.05 | 70 | 1010.3 |
| 20260507191504 | 56 | 110 | 2.0 | 4.0 | 0.00 | 0.06 | 0.05 | 69 | 1010.2 |
| 20260507190004 | 55 | 269 | 0.0 | 3.0 | 0.00 | 0.06 | 0.05 | 69 | 1010.0 |
| 20260507184506 | 55 | 286 | 0.0 | 3.0 | 0.00 | 0.06 | 0.05 | 66 | 1010.6 |
| 20260507183009 | 55 | 136 | 0.0 | 1.0 | 0.00 | 0.06 | 0.05 | 74 | 1010.6 |
| 20260507181509 | 55 | 133 | 0.0 | 2.0 | 0.00 | 0.06 | 0.05 | 67 | 1010.9 |
| 20260507180008 | 55 | 5 | 0.0 | 3.0 | 0.00 | 0.06 | 0.05 | 69 | 1011.0 |
| 20260507174504 | 55 | 82 | 0.0 | 4.0 | 0.00 | 0.06 | 0.05 | 64 | 1011.0 |
| 20260507173012 | 54 | 342 | 1.0 | 4.0 | 0.00 | 0.06 | 0.05 | 62 | 1011.0 |
| 20260507171507 | 54 | 323 | 3.0 | 8.0 | 0.00 | 0.06 | 0.05 | 67 | 1011.2 |
| 20260507170013 | 54 | 321 | 0.0 | 4.0 | 0.00 | 0.06 | 0.05 | 69 | 1011.7 |
| 20260507164511 | 54 | 321 | 0.0 | 5.0 | 0.00 | 0.06 | 0.05 | 66 | 1011.8 |
| 20260507163005 | 54 | 317 | 2.0 | 8.0 | 0.00 | 0.06 | 0.05 | 63 | 1012.1 |
| 20260507161509 | 54 | 315 | 1.0 | 4.0 | 0.00 | 0.06 | 0.05 | 63 | 1012.5 |
| 20260507160003 | 54 | 324 | 1.0 | 9.0 | 0.00 | 0.06 | 0.05 | 62 | 1012.2 |
| 20260507154516 | 54 | 325 | 0.0 | 7.0 | 0.00 | 0.06 | 0.05 | 64 | 1012.1 |